GW0484 Weather Reports


Display with metric or nautical units.
time (UTC)temp
F
wind
direction
speed
MPH
gust
MPH
rain 1hr
in
rain 24hr
in
rain mn
in
humidity
%
barometer
mb
20260502194524 0 68 8.0 11.0 0.00 0.00 0.00 1014.7
20260502194020 0 43 8.0 10.0 0.00 0.00 0.00 1014.8
20260502193518 0 42 12.0 15.0 0.00 0.00 0.00 1015.0
20260502193015 0 8 7.0 10.0 0.00 0.00 0.00 1014.8
20260502192510 0 357 7.0 9.0 0.00 0.00 0.00 1014.8
20260502192008 0 300 4.0 6.0 0.00 0.00 0.00 1015.2
20260502191505 0 27 9.0 10.0 0.00 0.00 0.00 1015.0
20260502191003 0 36 9.0 11.0 0.00 0.00 0.00 1014.9
20260502190500 0 70 3.0 5.0 0.00 0.00 0.00 1015.0
20260502185956 0 30 3.0 3.0 0.00 0.00 0.00 1015.0
20260502185451 0 20 6.0 7.0 0.00 0.00 0.00 1015.0
20260502184949 0 82 2.0 2.0 0.00 0.00 0.00 1015.0
20260502184444 0 341 6.0 9.0 0.00 0.00 0.00 1015.1
20260502183941 0 51 7.0 9.0 0.00 0.00 0.00 1015.0
20260502183437 0 118 3.0 3.0 0.00 0.00 0.00 1015.2
20260502182932 0 157 1.0 2.0 0.00 0.00 0.00 1015.2
20260502182428 0 44 6.0 7.0 0.00 0.00 0.00 1015.1
20260502181924 0 90 0.0 0.0 0.00 0.00 0.00 1015.2
20260502181423 0 286 6.0 9.0 0.00 0.00 0.00 1015.2
20260502180921 0 75 2.0 3.0 0.00 0.00 0.00 1015.2
20260502180418 0 76 5.0 7.0 0.00 0.00 0.00 1015.1
20260502170336 0 12 6.0 7.0 0.00 0.00 0.00 1016.0
20260502164324 0 28 7.0 9.0 0.00 0.00 0.00 1015.7
20260502163820 0 62 11.0 13.0 0.00 0.00 0.00 1015.7
20260502163316 0 66 7.0 9.0 0.00 0.00 0.00 1015.7
20260502162814 0 26 8.0 14.0 0.00 0.00 0.00 1015.5
20260502162310 0 56 5.0 7.0 0.00 0.00 0.00 1015.4
20260502161808 0 28 7.0 8.0 0.00 0.00 0.00 1015.8
20260502161303 0 34 7.0 8.0 0.00 0.00 0.00 1015.8
20260502160801 0 9 6.0 8.0 0.00 0.00 0.00 1015.7
20260502160301 0 16 7.0 9.0 0.00 0.00 0.00 1015.9
20260502152229 0 33 6.0 10.0 0.00 0.00 0.00 1015.5
20260502151727 0 59 6.0 9.0 0.00 0.00 0.00 1015.5
20260502151224 0 90 7.0 9.0 0.00 0.00 0.00 1015.5
20260502150721 0 60 9.0 10.0 0.00 0.00 0.00 1015.4
20260502150218 0 89 4.0 6.0 0.00 0.00 0.00 1015.2
20260502130606 0 25 10.0 13.0 0.00 0.00 0.00 1014.6
20260502130104 0 19 11.0 13.0 0.00 0.00 0.00 1014.5
20260502123549 0 345 7.0 9.0 0.00 0.00 0.00 1014.2
20260502123046 0 356 5.0 6.0 0.00 0.00 0.00 1014.2
20260502122543 0 319 7.0 8.0 0.00 0.00 0.00 1014.2
20260502122040 0 356 7.0 9.0 0.00 0.00 0.00 1014.1
20260502121537 0 351 7.0 9.0 0.00 0.00 0.00 1013.8
20260502121035 0 17 9.0 11.0 0.00 0.00 0.00 1014.0
20260502120531 0 11 8.0 10.0 0.00 0.00 0.00 1014.0
20260502115526 0 356 14.0 16.0 0.00 0.00 0.00 1013.8
20260502115021 0 47 8.0 9.0 0.00 0.00 0.00 1014.0
20260502114518 0 10 8.0 9.0 0.00 0.00 0.00 1013.8
20260502114015 0 10 7.0 9.0 0.00 0.00 0.00 1013.7
20260502113513 0 130 2.0 3.0 0.00 0.00 0.00 1013.2
20260502113012 0 108 2.0 3.0 0.00 0.00 0.00 1013.5
20260502112509 0 39 4.0 5.0 0.00 0.00 0.00 1013.6
20260502112006 0 107 0.0 1.0 0.00 0.00 0.00 1013.4
20260502111503 0 50 2.0 3.0 0.00 0.00 0.00 1013.2
20260502111001 0 28 5.0 6.0 0.00 0.00 0.00 1013.1
20260502110458 0 80 3.0 3.0 0.00 0.00 0.00 1013.1
20260502105955 0 103 0.0 0.0 0.00 0.00 0.00 1013.0
20260502105453 0 19 2.0 3.0 0.00 0.00 0.00 1012.9
20260502104950 0 109 0.0 0.0 0.00 0.00 0.00 1012.8
20260502104447 0 99 1.0 2.0 0.00 0.00 0.00 1012.7
20260502103944 0 52 4.0 5.0 0.00 0.00 0.00 1012.5
20260502103442 0 28 5.0 6.0 0.00 0.00 0.00 1012.5
20260502102939 0 5 3.0 6.0 0.00 0.00 0.00 1012.7
20260502102436 0 350 7.0 10.0 0.00 0.00 0.00 1012.4
20260502101932 0 12 5.0 6.0 0.00 0.00 0.00 1012.4
20260502101431 0 97 0.0 1.0 0.00 0.00 0.00 1012.3
20260502100929 0 110 0.0 0.0 0.00 0.00 0.00 1012.4
20260502100428 0 106 0.0 0.0 0.00 0.00 0.00 1012.2
20260502091402 0 278 4.0 5.0 0.00 0.00 0.00 1011.7
20260502090859 0 285 7.0 8.0 0.00 0.00 0.00 1011.6
20260502090356 0 258 5.0 5.0 0.00 0.00 0.00 1011.6
20260502071251 0 127 0.0 0.0 0.00 0.00 0.00 1011.2
20260502070749 0 119 0.0 0.0 0.00 0.00 0.00 1011.2
20260502070246 0 118 0.0 0.0 0.00 0.00 0.00 1011.2
20260502065745 0 130 0.0 0.0 0.00 0.00 0.00 1011.1
20260502065243 0 140 1.0 1.0 0.00 0.00 0.00 1011.2
20260502064741 0 230 3.0 3.0 0.00 0.00 0.00 1011.2
20260502064238 0 174 1.0 1.0 0.00 0.00 0.00 1011.0
20260502063735 0 108 0.0 0.0 0.00 0.00 0.00 1011.1
20260502063233 0 108 0.0 0.0 0.00 0.00 0.00 1011.3
20260502062730 0 108 0.0 0.0 0.00 0.00 0.00 1011.3
20260502062228 0 108 0.0 0.0 0.00 0.00 0.00 1011.1
20260502061726 0 136 1.0 1.0 0.00 0.00 0.00 1011.3
20260502061223 0 183 2.0 2.0 0.00 0.00 0.00 1011.3
20260502060718 0 160 0.0 0.0 0.00 0.00 0.00 1011.1
20260502060214 0 156 1.0 2.0 0.00 0.00 0.00 1011.0
20260502055713 0 88 0.0 0.0 0.00 0.00 0.00 1011.1
20260502055210 0 87 0.0 0.0 0.00 0.00 0.00 1011.1
20260502054709 0 87 0.0 0.0 0.00 0.00 0.00 1010.8
20260502054206 0 90 0.0 0.0 0.00 0.00 0.00 1010.8
20260502053704 0 90 0.0 0.0 0.00 0.00 0.00 1011.0
20260502053201 0 36 4.0 5.0 0.00 0.00 0.00 1011.0
20260502052659 0 76 3.0 3.0 0.00 0.00 0.00 1011.0
20260502052157 0 96 1.0 2.0 0.00 0.00 0.00 1010.7
20260502051654 0 109 2.0 2.0 0.00 0.00 0.00 1010.8
20260502051152 0 120 0.0 0.0 0.00 0.00 0.00 1010.8
20260502050648 0 130 0.0 0.0 0.00 0.00 0.00 1010.7
20260502050145 0 134 0.0 0.0 0.00 0.00 0.00 1010.7
20260502045641 0 135 0.0 0.0 0.00 0.00 0.00 1010.7
20260502045139 0 120 0.0 0.0 0.00 0.00 0.00 1011.0
20260502044635 0 119 1.0 1.0 0.00 0.00 0.00 1010.7
20260502044131 0 120 1.0 2.0 0.00 0.00 0.00 1010.6
20260502043630 0 149 0.0 0.0 0.00 0.00 0.00 1010.6
20260502043121 0 149 0.0 0.0 0.00 0.00 0.00 1010.6
20260502042620 0 149 0.0 0.0 0.00 0.00 0.00 1010.7
20260502042118 0 150 0.0 0.0 0.00 0.00 0.00 1010.7
20260502041616 0 157 1.0 1.0 0.00 0.00 0.00 1010.8
20260502041113 0 140 0.0 0.0 0.00 0.00 0.00 1010.6
20260502040609 0 156 0.0 1.0 0.00 0.00 0.00 1010.6
20260502040107 0 185 0.0 0.0 0.00 0.00 0.00 1010.6
20260502035602 0 134 0.0 0.0 0.00 0.00 0.00 1010.6
20260502035100 0 134 0.0 0.0 0.00 0.00 0.00 1010.6
20260502034557 0 122 0.0 0.0 0.00 0.00 0.00 1010.5
20260502034056 0 119 1.0 2.0 0.00 0.00 0.00 1010.5
20260502033554 0 138 0.0 0.0 0.00 0.00 0.00 1010.3
20260502033051 0 140 0.0 0.0 0.00 0.00 0.00 1010.2
20260502032546 0 144 0.0 0.0 0.00 0.00 0.00 1010.3
20260502032043 0 146 0.0 1.0 0.00 0.00 0.00 1010.2
20260502031541 0 174 1.0 1.0 0.00 0.00 0.00 1010.3
20260502031039 0 264 1.0 2.0 0.00 0.00 0.00 1010.3
20260502030538 0 217 0.0 0.0 0.00 0.00 0.00 1010.3
20260502030035 0 320 3.0 3.0 0.00 0.00 0.00 1010.0
20260502025532 0 286 5.0 6.0 0.00 0.00 0.00 1010.0
20260502025030 0 274 7.0 7.0 0.00 0.00 0.00 1010.1
20260502024527 0 261 6.0 7.0 0.00 0.00 0.00 1009.9
20260502024026 0 279 6.0 7.0 0.00 0.00 0.00 1009.8
20260502023523 0 297 5.0 7.0 0.00 0.00 0.00 1009.9
20260502023020 0 277 7.0 7.0 0.00 0.00 0.00 1009.9
20260502022516 0 316 3.0 3.0 0.00 0.00 0.00 1009.6
20260502022014 0 288 2.0 2.0 0.00 0.00 0.00 1009.8
20260502021512 0 249 5.0 6.0 0.00 0.00 0.00 1009.8
20260502021008 0 241 5.0 6.0 0.00 0.00 0.00 1009.8
20260502020506 0 246 5.0 6.0 0.00 0.00 0.00 1009.5
20260502020003 0 241 5.0 6.0 0.00 0.00 0.00 1009.6
20260502015501 0 244 5.0 6.0 0.00 0.00 0.00 1009.6
20260502014956 0 235 5.0 6.0 0.00 0.00 0.00 1009.6
20260502014453 0 246 5.0 6.0 0.00 0.00 0.00 1009.5
20260502013950 0 243 5.0 6.0 0.00 0.00 0.00 1009.6
20260502013446 0 236 5.0 7.0 0.00 0.00 0.00 1009.6
20260502012942 0 228 7.0 7.0 0.00 0.00 0.00 1009.8
20260502012440 0 250 7.0 8.0 0.00 0.00 0.00 1009.6
20260502011938 0 204 4.0 6.0 0.00 0.00 0.00 1009.6
20260502011433 0 240 7.0 10.0 0.00 0.00 0.00 1009.5
20260502010931 0 244 11.0 11.0 0.00 0.00 0.00 1009.6
20260502010427 0 237 11.0 13.0 0.00 0.00 0.00 1009.8
20260502005923 0 229 9.0 10.0 0.00 0.00 0.00 1009.9
20260502005421 0 227 12.0 14.0 0.00 0.00 0.00 1009.6
20260502004920 0 217 8.0 9.0 0.00 0.00 0.00 1009.8
20260502004415 0 200 4.0 5.0 0.00 0.00 0.00 1010.0
20260502003912 0 201 5.0 6.0 0.00 0.00 0.00 1009.9
20260502003410 0 231 9.0 10.0 0.00 0.00 0.00 1010.1
20260502002905 0 256 9.0 10.0 0.00 0.00 0.00 1010.1
20260502002403 0 221 7.0 8.0 0.00 0.00 0.00 1010.2
20260502001900 0 261 11.0 11.0 0.00 0.00 0.00 1010.1
20260502001358 0 238 11.0 13.0 0.00 0.00 0.00 1010.3
20260502000855 0 240 7.0 8.0 0.00 0.00 0.00 1009.9
20260502000354 0 220 6.0 8.0 0.00 0.00 0.00 1010.1
20260501235849 0 231 8.0 9.0 0.00 0.00 0.00 1010.2
20260501235345 0 236 7.0 9.0 0.00 0.00 0.00 1010.0
20260501234840 0 199 5.0 6.0 0.00 0.00 0.00 1010.1
20260501234338 0 190 4.0 5.0 0.00 0.00 0.00 1010.3
20260501233836 0 205 7.0 8.0 0.00 0.00 0.00 1010.1
20260501233333 0 198 5.0 5.0 0.00 0.00 0.00 1010.3
20260501232829 0 200 4.0 5.0 0.00 0.00 0.00 1010.2
20260501232326 0 214 3.0 5.0 0.00 0.00 0.00 1010.2
20260501231824 0 220 5.0 5.0 0.00 0.00 0.00 1010.4
20260501231321 0 194 3.0 3.0 0.00 0.00 0.00 1010.4
20260501230820 0 215 8.0 9.0 0.00 0.00 0.00 1010.2
20260501230318 0 181 7.0 8.0 0.00 0.00 0.00 1010.2
20260501225815 0 225 9.0 10.0 0.00 0.00 0.00 1010.6
20260501225313 0 200 5.0 7.0 0.00 0.00 0.00 1010.5
20260501224809 0 238 14.0 16.0 0.00 0.00 0.00 1010.6
20260501224306 0 234 8.0 11.0 0.00 0.00 0.00 1010.7
20260501223803 0 274 10.0 11.0 0.00 0.00 0.00 1010.7
20260501223259 0 226 11.0 13.0 0.00 0.00 0.00 1010.6
20260501222755 0 215 5.0 6.0 0.00 0.00 0.00 1010.8
20260501222252 0 307 9.0 9.0 0.00 0.00 0.00 1010.6
20260501221749 0 240 10.0 11.0 0.00 0.00 0.00 1010.7
20260501221246 0 201 5.0 6.0 0.00 0.00 0.00 1011.0
20260501220744 0 237 3.0 3.0 0.00 0.00 0.00 1010.8
20260501220241 0 295 4.0 5.0 0.00 0.00 0.00 1011.1
20260501215738 0 242 9.0 10.0 0.00 0.00 0.00 1010.8
20260501215233 0 308 7.0 8.0 0.00 0.00 0.00 1011.1
20260501214729 0 250 3.0 5.0 0.00 0.00 0.00 1011.1
20260501214225 0 225 0.0 0.0 0.00 0.00 0.00 1011.2
20260501213721 0 160 1.0 1.0 0.00 0.00 0.00 1011.2
20260501213217 0 192 3.0 5.0 0.00 0.00 0.00 1011.4
20260501212714 0 194 9.0 14.0 0.00 0.00 0.00 1011.3
20260501212210 0 129 4.0 6.0 0.00 0.00 0.00 1011.4
20260501211707 0 187 5.0 7.0 0.00 0.00 0.00 1011.6
20260501211204 0 197 2.0 6.0 0.00 0.00 0.00 1011.4
20260501210701 0 222 4.0 5.0 0.00 0.00 0.00 1011.7
20260501210158 0 235 6.0 8.0 0.00 0.00 0.00 1011.7
20260501205654 0 231 8.0 11.0 0.00 0.00 0.00 1011.6
20260501205152 0 345 0.0 1.0 0.00 0.00 0.00 1011.6
20260501204649 0 256 7.0 8.0 0.00 0.00 0.00 1011.8
20260501204144 0 197 8.0 10.0 0.00 0.00 0.00 1011.7
20260501203641 0 222 7.0 8.0 0.00 0.00 0.00 1011.9
20260501203139 0 219 4.0 5.0 0.00 0.00 0.00 1011.9
20260501202635 0 215 6.0 7.0 0.00 0.00 0.00 1011.9
20260501202132 0 248 7.0 8.0 0.00 0.00 0.00 1011.8
20260501201629 0 120 3.0 5.0 0.00 0.00 0.00 1012.0
20260501201126 0 184 1.0 2.0 0.00 0.00 0.00 1012.3
20260501200623 0 204 5.0 7.0 0.00 0.00 0.00 1012.0
20260501200120 0 348 1.0 2.0 0.00 0.00 0.00 1011.8
20260501195618 0 258 3.0 3.0 0.00 0.00 0.00 1012.0
20260501195113 0 221 2.0 3.0 0.00 0.00 0.00 1012.3